Bonaire, Netherlands

3:10 PM AST on June 26, 2017 (GMT -0400)
Flamingo

Weather History for TNCB - December, 2012

Change the Weather History Date:

Sunday, December 9, 2012

  Actual Average Record
Temperature  
Mean Temperature 83 °F -  
Max Temperature 88 °F 85 °F 88 °F (2012)
Min Temperature 78 °F 77 °F 73 °F (2007)
Cooling Degree Days 18    
Growing Degree Days 33 (Base 50)    
Moisture  
Dew Point 76 °F    
Average Humidity 79    
Maximum Humidity 94    
Minimum Humidity 66    
Precipitation  
Precipitation 0.00 in - - ()
Sea Level Pressure  
Sea Level Pressure 29.92 in    
Wind  
Wind Speed 14 mph ()    
Max Wind Speed 22 mph    
Max Gust Speed -    
Visibility 6.2 miles    
Events Thunderstorm    
Averages and records for this station are not official NWS values.
T = Trace of Precipitation, MM = Missing Value Source: Averaged Metar Reports

Daily Weather History Graph

Daily Weather History Graph

Search for Another Location

Airport or City:

Trip Planner

Search our weather history database for the weather conditions in past years. The results will help you decide how hot, cold, wet, or windy it might be!

Date:

Astronomy

Dec. 09, 2012 Rise Set
Actual Time 6:42 AM AST 6:08 PM AST
Civil Twilight 6:19 AM AST 6:31 PM AST
Nautical Twilight 5:53 AM AST 6:58 PM AST
Astronomical Twilight 5:27 AM AST 7:24 PM AST
Moon 2:43 AM AST (12/9) 2:46 PM AST (12/9)
Length of Visible Light 12h 11m
Length of Day
11h 25m
Waning Crescent, 19% of the Moon is Illuminated
Dec 9
Waning Crescent
Dec 13
New
Dec 20
First Quarter
Dec 28
Full
Jan 4
Last Quarter

Hourly Weather History & Observations

Time (AST) Temp. Heat Index Dew Point Humidity Pressure Visibility Wind Dir Wind Speed Gust Speed Precip Events Conditions
12:00 AM 82.4 °F 89.5 °F 75.2 °F 79% 29.92 in - East 13.8 mph - N/A   Unknown
1:00 AM 82.4 °F 89.5 °F 75.2 °F 79% 29.92 in - East 16.1 mph - N/A   Unknown
2:00 AM 82 °F - 76 °F 78%  in - East 15.0 mph - -   Clear
2:00 AM 82.4 °F 90.9 °F 77.0 °F 84% 29.89 in - East 15.0 mph - N/A   Unknown
3:00 AM 82.4 °F 89.5 °F 75.2 °F 79% 29.86 in - East 15.0 mph - N/A   Unknown
4:00 AM 82.4 °F 90.9 °F 77.0 °F 84% 29.86 in - East 13.8 mph - N/A   Unknown
5:00 AM 82 °F - 76 °F 78%  in - ESE 17.3 mph - -   Clear
5:00 AM 82.4 °F 90.9 °F 77.0 °F 84% 29.89 in - East 15.0 mph - N/A   Unknown
6:00 AM 82.4 °F 89.5 °F 75.2 °F 79% 29.89 in - East 15.0 mph - N/A   Unknown
7:00 AM 82.4 °F 90.9 °F 77.0 °F 84% 29.92 in - East 12.7 mph - N/A   Unknown
8:00 AM 84.2 °F 94.1 °F 77.0 °F 79% 29.95 in - East 18.4 mph - N/A   Unknown
9:00 AM 86.0 °F 96.9 °F 77.0 °F 74% 29.98 in - East 19.6 mph - N/A   Unknown
10:00 AM 86.0 °F 96.9 °F 77.0 °F 74% 29.98 in 6.2 mi East 17.3 mph - N/A   Scattered Clouds
12:00 PM 87.8 °F 97.6 °F 75.2 °F 66% 29.98 in - East 19.6 mph - N/A   Unknown
1:00 PM 87.8 °F 97.6 °F 75.2 °F 66% 29.98 in - East 19.6 mph - N/A   Unknown
2:00 PM 87.8 °F 97.6 °F 75.2 °F 66% 29.98 in - North - - N/A   Unknown
3:00 PM 87.8 °F 99.7 °F 77.0 °F 70% 29.89 in 6.2 mi East 20.7 mph - N/A   Scattered Clouds
4:00 PM 84.2 °F 92.3 °F 75.2 °F 74% 29.89 in 6.2 mi East 21.9 mph - N/A   Scattered Clouds
5:00 PM 86.0 °F 96.9 °F 77.0 °F 74% 29.86 in 6.2 mi East 17.3 mph - N/A   Scattered Clouds
6:00 PM 80.6 °F 87.1 °F 77.0 °F 89% 29.89 in 6.2 mi East 12.7 mph - N/A   Scattered Clouds
7:00 PM 78.8 °F - 77.0 °F 94% 29.89 in 6.2 mi East 10.4 mph - N/A Thunderstorm Thunderstorm
8:00 PM 82 °F - 78 °F 83% 29.92 in 22 mi East 12.7 mph - - Thunderstorm Light Thunderstorm
8:00 PM 82.4 °F 90.9 °F 77.0 °F 84% 29.89 in 6.2 mi East 12.7 mph - N/A   Scattered Clouds
9:00 PM 82.4 °F 90.9 °F 77.0 °F 84% 29.92 in - East 16.1 mph - N/A   Unknown